Weather History for Denver, CO

Change the Weather History Date:

Sunday, April 28, 2013

  Actual Average (KDEN) Record (KDEN)
Temperature  
Mean Temperature 64 °F 51 °F  
Max Temperature 78 °F 65 °F 86 °F (1910)
Min Temperature 50 °F 37 °F 24 °F (1917)
Degree Days  
Heating Degree Days 1 14  
Month to date heating degree days 501  
Since 1 July heating degree days 5703  
Cooling Degree Days 0 0  
Month to date cooling degree days 0  
Year to date cooling degree days 0  
Growing Degree Days 14 (Base 50)    
Moisture  
Dew Point 28 °F    
Average Humidity 30    
Maximum Humidity 42    
Minimum Humidity 13    
Precipitation  
Precipitation 0.00 in 0.07 in 0.44 in (1950)
Month to date precipitation 1.57  
Year to date precipitation 3.27  
Snow  
Snow 0.00 in - - ()
Month to date snowfall  
Since 1 July snowfall  
Snow Depth -    
Sea Level Pressure  
Sea Level Pressure 29.98 in    
Wind  
Wind Speed 12 mph (SSW)    
Max Wind Speed 28 mph    
Max Gust Speed 41 mph    
Visibility 10 miles    
Events      
T = Trace of Precipitation, MM = Missing Value Source: NWS Daily Summary

Daily Weather History Graph

Daily Weather History Graph

Search for Another Location

Airport:

Trip Planner

Search our weather history database for the weather conditions in past years. The results will help you decide how hot, cold, wet, or windy it might be!

Date:

Astronomy

Apr. 28, 2013 Rise Set
Actual Time 6:02 AM MDT 7:49 PM MDT
Civil Twilight 5:33 AM MDT 8:18 PM MDT
Nautical Twilight 4:57 AM MDT 8:54 PM MDT
Astronomical Twilight 4:20 AM MDT 9:31 PM MDT
Moon 11:22 PM MDT (4/28) 8:21 AM MDT (4/28)
Length of Visible Light 14h 45m
Length of Day
13h 47m
Waning Gibbous, 88% of the Moon is Illuminated
Apr 28
Waning Gibbous
May 2
Last Quarter
May 9
New
May 17
First Quarter
May 24
Full

Hourly Weather History & Observations

Time (MDT) Temp. Dew Point Humidity Pressure Visibility Wind Dir Wind Speed Gust Speed Precip Events Conditions
12:15 AM 55.4 °F 26.6 °F 33% 30.07 in 10.0 mi SW 11.5 mph - N/A   Clear
12:35 AM 53.6 °F 26.6 °F 35% 30.07 in 10.0 mi SSW 12.7 mph - N/A   Clear
12:55 AM 53.6 °F 26.6 °F 35% 30.06 in 10.0 mi SSW 12.7 mph - N/A   Clear
1:15 AM 53.6 °F 26.6 °F 35% 30.06 in 10.0 mi SSW 13.8 mph - N/A   Clear
1:35 AM 51.8 °F 26.6 °F 38% 30.05 in 10.0 mi SSW 16.1 mph - N/A   Clear
1:54 AM 51.8 °F 26.6 °F 38% 30.05 in 10.0 mi SSW 16.1 mph - N/A   Clear
2:15 AM 51.8 °F 26.6 °F 38% 30.04 in 10.0 mi SSW 16.1 mph - N/A   Clear
2:35 AM 53.6 °F 24.8 °F 33% 30.03 in 10.0 mi SSW 16.1 mph - N/A   Clear
2:55 AM 51.8 °F 24.8 °F 35% 30.03 in 10.0 mi SSW 16.1 mph - N/A   Clear
3:14 AM 53.6 °F 23.0 °F 30% 30.03 in 10.0 mi SSW 17.3 mph - N/A   Clear
3:35 AM 51.8 °F 23.0 °F 33% 30.03 in 10.0 mi SSW 15.0 mph - N/A   Clear
3:55 AM 53.6 °F 23.0 °F 30% 30.03 in 10.0 mi SSW 15.0 mph - N/A   Clear
4:15 AM 53.6 °F 23.0 °F 30% 30.03 in 10.0 mi SSW 13.8 mph - N/A   Clear
4:35 AM 51.8 °F 23.0 °F 33% 30.03 in 10.0 mi SSW 12.7 mph - N/A   Clear
4:55 AM 51.8 °F 23.0 °F 33% 30.02 in 10.0 mi SSW 13.8 mph - N/A   Clear
5:15 AM 50.0 °F 24.8 °F 37% 30.02 in 10.0 mi SSW 12.7 mph - N/A   Clear
5:34 AM 51.8 °F 23.0 °F 33% 30.03 in 10.0 mi SSW 12.7 mph - N/A   Clear
5:55 AM 51.8 °F 23.0 °F 33% 30.03 in 10.0 mi SSW 13.8 mph - N/A   Clear
6:15 AM 50.0 °F 23.0 °F 35% 30.03 in 10.0 mi SW 12.7 mph - N/A   Clear
6:35 AM 51.8 °F 23.0 °F 33% 30.03 in 10.0 mi SW 12.7 mph - N/A   Clear
7:50 AM 59.0 °F 26.6 °F 29% 30.03 in 40.0 mi SSW 10.4 mph 41.4 mph N/A   Scattered Clouds
8:47 AM 66.2 °F 26.6 °F 23% 30.02 in 50.0 mi SW 10.4 mph - N/A   Scattered Clouds
9:50 AM 71.6 °F 24.8 °F 17% 30.01 in 50.0 mi WSW 11.5 mph - N/A   Scattered Clouds
10:47 AM 73.4 °F 23.0 °F 15% 30.00 in 50.0 mi WNW 4.6 mph - N/A   Scattered Clouds
12:53 PM 75.2 °F 21.2 °F 13% 29.97 in 50.0 mi NW 6.9 mph - N/A   Scattered Clouds
1:47 PM 75.2 °F 21.2 °F 13% 29.95 in 50.0 mi Calm Calm - N/A   Scattered Clouds
2:53 PM 78.8 °F 26.6 °F 15% 29.93 in 50.0 mi NNE 9.2 mph - N/A   Scattered Clouds
3:56 PM 77.0 °F 26.6 °F 16% 29.91 in 50.0 mi NW 16.1 mph 23.0 mph N/A   Scattered Clouds
4:48 PM 77.0 °F 24.8 °F 14% 29.90 in 50.0 mi NW 11.5 mph - N/A   Scattered Clouds
5:48 PM 77.0 °F 26.6 °F 16% 29.89 in 50.0 mi North 11.5 mph - N/A   Scattered Clouds
6:50 PM 71.6 °F 35.6 °F 27% 29.89 in 50.0 mi NNE 5.8 mph - N/A   Mostly Cloudy
7:48 PM 68.0 °F 32.0 °F 26% 29.89 in 50.0 mi ENE 4.6 mph - N/A   Mostly Cloudy
7:55 PM 68.0 °F 32.0 °F 26% 29.89 in 10.0 mi East 5.8 mph - N/A   Scattered Clouds
8:15 PM 69.8 °F 30.2 °F 23% 29.89 in 10.0 mi East 4.6 mph - N/A   Clear
8:35 PM 62.6 °F 37.4 °F 39% 29.90 in 10.0 mi ESE 3.5 mph - N/A   Scattered Clouds
8:55 PM 62.6 °F 39.2 °F 42% 29.91 in 10.0 mi Calm Calm - N/A   Scattered Clouds
9:15 PM 64.4 °F 33.8 °F 32% 29.93 in 10.0 mi NE 19.6 mph 27.6 mph N/A   Mostly Cloudy
9:35 PM 62.6 °F 33.8 °F 34% 29.93 in 10.0 mi ENE 25.3 mph 32.2 mph N/A   Overcast
9:55 PM 64.4 °F 32.0 °F 30% 29.94 in 10.0 mi NE 27.6 mph 33.4 mph N/A   Overcast
10:14 PM 64.4 °F 32.0 °F 30% 29.97 in 10.0 mi ENE 13.8 mph - N/A   Overcast
10:35 PM 64.4 °F 32.0 °F 30% 29.96 in 10.0 mi East 11.5 mph 16.1 mph N/A   Overcast
10:54 PM 62.6 °F 33.8 °F 34% 29.95 in 10.0 mi East 11.5 mph - N/A   Scattered Clouds
11:14 PM 60.8 °F 35.6 °F 39% 29.95 in 10.0 mi ESE 10.4 mph - N/A   Scattered Clouds
11:34 PM 60.8 °F 35.6 °F 39% 29.94 in 10.0 mi East 10.4 mph - N/A   Scattered Clouds
11:54 PM 59.0 °F 35.6 °F 42% 29.95 in 10.0 mi ENE 9.2 mph - N/A   Mostly Cloudy